Regional & State Weather Roundups


342 
ASUS45 KABQ 251910
RWRNM 
NEW MEXICO REGIONAL WEATHER ROUNDUP
NATIONAL WEATHER SERVICE ALBUQUERQUE NM
100 PM MDT THU APR 25 2019
NOTE: "FAIR" MEANS FEW OR NO CLOUDS BELOW 12,000 FEET AGL WITH NO
       SIGNIFICANT WEATHER OR OBSTRUCTIONS TO VISION.
      THIS PRODUCT IS RELEASED AS TWO VERSIONS.  ONE VERSION NEAR
      THE TOP OF THE HOUR CONTAINING PRELIMINARY DATA FROM ALBUQUERQUE
      AND OTHER STATIONS.  A FINAL VERSION WITH ADDITIONAL DATA IS 
      ISSUED ABOUT 10 MINUTES AFTER THE HOUR.
 
NMZ501-503-504-510>518-252000-
NORTHWEST PLATEAU/NORTHCENTRAL MOUNTAINS
  
CITY           SKY/WX    TMP DP  RH WIND       PRES   REMARKS
FARMINGTON     FAIR      74  33  22 W9G22     30.11F                  
LOS ALAMOS       N/A     66  27  23 CALM      30.23S                  
SANTA FE       FAIR      70  28  21 S8        30.16F                  
TAOS           PTSUNNY   69  30  23 SW6       30.20F                  
ANGEL FIRE       N/A     59  32  36 SW13G22   30.25S                  
$$
NMZ402-403-502-505>509-252000-
WESTCENTRAL MOUNTAINS/SOUTHWEST MOUNTAINS
  
CITY           SKY/WX    TMP DP  RH WIND       PRES   REMARKS
GALLUP         FAIR      72  29  20 W6        30.18F                  
GRANTS         FAIR      71  26  18 N6G16     30.20S                  
SILVER CITY    FAIR      78  30  17 SW8       30.14S                  
$$
NMZ407-409-411-412-252000-
SOUTHERN DESERTS
  
CITY           SKY/WX    TMP DP  RH WIND       PRES   REMARKS
DEMING         FAIR      82  28  14 VRB5      30.07F                  
LAS CRUCES     FAIR      82  28  13 W8        30.09F                  
ALAMOGORDO     FAIR      81  32  17 NW8       30.06F                  
T OR C         FAIR      80  30  16 MISG      30.09F                  
$$
NMZ519>523-252000-
CENTRAL VALLEYS/CENTRAL HIGHLANDS
  
CITY           SKY/WX    TMP DP  RH WIND       PRES   REMARKS
ALBUQUERQUE    FAIR      73  36  25 NW6       30.13F                  
DOUBLE EAGLE   MOSUNNY   72  36  26 VRB6      30.16F                  
MORIARTY ARPT  FAIR      73  32  22 CALM      30.17F                  
CLINES CORNERS PTSUNNY   66  36  32 VRB6      30.22S                  
BELEN          FAIR      74  29  19 CALM      30.13F                  
SOCORRO        FAIR      79  26  14 N12G17    30.11S                  
$$
NMZ524>526-539-540-252000-
SOUTHCENTRAL MOUNTAINS
  
CITY           SKY/WX    TMP DP  RH WIND       PRES   REMARKS
RUIDOSO        FAIR      68  32  26 N5        30.22S                  
$$
NMZ527>531-252000-
NORTHEAST HIGHLANDS/NORTHEAST PLAINS
  
CITY           SKY/WX    TMP DP  RH WIND       PRES   REMARKS
LAS VEGAS      FAIR      63  40  42 E15G22    30.21S                  
RATON          FAIR      62  38  40 N9G20     30.20F                  
CLAYTON        FAIR      66  38  35 N26G39    30.15R                  
$$
NMZ532>537-252000-
EASTCENTRAL PLAINS
  
CITY           SKY/WX    TMP DP  RH WIND       PRES   REMARKS
SANTA ROSA     FAIR      73  42  33 NE18G28   30.11S                  
TUCUMCARI      FAIR      75  45  34 NE17G31   30.09F                  
CANNON AFB     NOT AVBL                                               
CLOVIS AIRPORT FAIR      70  47  43 NE29G36   30.10R                  
$$
NMZ028-029-538-252000-
SOUTHEAST PLAINS
  
CITY           SKY/WX    TMP DP  RH WIND       PRES   REMARKS
ROSWELL        FAIR      83  42  23 NE10      30.01S                  
ARTESIA        FAIR      81  41  24 N12       30.02S                  
CARLSBAD       FAIR      82  44  26 NE5       29.99F                  
HOBBS          MOSUNNY   82  37  20 VRB6      30.02S                  
$$
  

344 
NZUS01 KABQ 251910
RWRABQ
NEW MEXICO REGIONAL WEATHER ROUNDUP
NATIONAL WEATHER SERVICE  ALBUQUERQUE NM
100 PM MDT THU APR 25 2019
-----NORTHERN NEW MEXICO AND NEARBY AREAS-----
  
CITY           SKY/WX    TMP DP  RH WIND       PRES   REMARKS
ALBUQUERQUE    FAIR      73  36  25 NW6       30.13F                  
BELEN          FAIR      74  29  19 CALM      30.13F                  
SOCORRO        FAIR      79  26  14 N12G17    30.11S                  
CITY           SKY/WX    TMP DP  RH WIND       PRES   REMARKS
SANTA FE       MOSUNNY   70  28  21 S8        30.16F                  
LOS ALAMOS       N/A     66  27  23 CALM      30.23S                  
TAOS           PTSUNNY   69  30  23 SW6       30.20F                  
ANGEL FIRE       N/A     59  32  36 SW13G22   30.25S                  
FARMINGTON     SUNNY     74  33  22 W9G22     30.11F                  
GRANTS         SUNNY     71  26  18 N6G16     30.20S                  
GALLUP         MOSUNNY   72  29  20 W6        30.18F                  
FLAGSTAFF      MOSUNNY   69  31  24 S8        30.24F                  
DURANGO        SUNNY     67  30  25 VRB3      30.16F                  
CITY           SKY/WX    TMP DP  RH WIND       PRES   REMARKS
ALAMOSA        MOSUNNY   64  25  22 VRB3      30.19F                  
DENVER         MOSUNNY   58  29  33 NE6       30.21F                  
CLAYTON        SUNNY     66  38  35 N26G39    30.15R                  
RATON          SUNNY     62  38  40 N9G20     30.20F                  
LAS VEGAS      SUNNY     63  40  42 E15G22    30.21S                  
CLINES CORNERS PTSUNNY   66  36  32 VRB6      30.22S                  
SANTA ROSA     FAIR      73  42  33 NE18G28   30.11S                  
TUCUMCARI      SUNNY     75  45  34 NE17G31   30.09F                  
CLOVIS (AFB)   NOT AVBL                                               
CLOVIS         SUNNY     70  47  43 NE29G36   30.10R                  
AMARILLO       SUNNY     71  48  43 N24G32    30.06S                  
-----SOUTHERN NEW MEXICO AND NEARBY AREAS-----
  
CITY           SKY/WX    TMP DP  RH WIND       PRES   REMARKS
T OR C         SUNNY     80  30  16 MISG      30.09F                  
DEMING         SUNNY     82  28  14 VRB5      30.07F                  
TUCSON         SUNNY     88  29  12 N7        30.03F                  
EL PASO        MOSUNNY   83  31  15 CALM      30.04F                  
LAS CRUCES     SUNNY     82  28  13 W8        30.09F                  
CITY           SKY/WX    TMP DP  RH WIND       PRES   REMARKS
ALAMOGORDO     NOT AVBL                                               
RUIDOSO        SUNNY     68  32  26 N5        30.22S                  
ROSWELL        SUNNY     83  42  23 NE10      30.01S                  
CARLSBAD       SUNNY     82  44  26 NE5       29.99F                  
HOBBS          MOSUNNY   82  37  20 VRB6      30.02S